[[{"header":{"parameterUnit":"m.s-1","parameterCategory":1,"la1":30.2991,"la2":30.254,"lo1":-89.0895,"lo2":-89.0444,"dy":0.0017,"dx":0.0017,"nx":28,"ny":28,"refTime":"2025-04-30T03:00:00:Z","depth":0,"parameterNumber":2,"parameterNumberName":"U-component_of_WINDS"},"data":[0,0,0,0,0,0,0,0,0,0,0,0,0,0,0,0,0,0,0,0,0,0,0,0,0,0,0,0,0,0,0,0,0,0,0,0,0,0,0,0,0,0,0,0,0,0,0,0,0,0,0,0,0,0,0,0,0,0,-1.8316,-1.8318,0,-1.8422,-1.8423,-1.8424,-1.8461,-1.8461,-1.8461,-1.846,-1.8568,-1.8571,-1.8574,0,0,0,0,0,0,0,0,0,0,0,0,0,-1.8149,-1.8152,-1.8316,-1.8318,-1.8319,-1.8421,-1.8423,-1.8424,-1.8461,-1.8461,-1.846,-1.846,-1.8567,-1.8571,-1.8575,0,0,0,0,0,0,0,0,0,0,0,0,0,-1.8235,-1.8153,-1.8316,-1.835,-1.8354,-1.8421,-1.8423,-1.8425,-1.8461,-1.8461,-1.846,-1.846,-1.8566,-1.857,-1.8575,-1.8616,0,0,-1.859,-1.8592,0,0,0,0,0,0,0,0,-1.823,-1.8241,-1.8344,-1.8348,-1.8352,-1.8428,-1.8403,-1.8489,-1.8462,-1.8421,-1.846,-1.846,-1.8522,-1.853,-1.8551,-1.8622,-1.8626,-1.859,-1.8593,-1.8595,-1.8597,0,0,0,0,0,0,0,-1.8224,-1.8236,-1.8358,-1.8345,-1.835,-1.836,-1.8372,-1.842,-1.8473,-1.8424,-1.8427,-1.8439,-1.8524,-1.8546,-1.8554,-1.8628,-1.859,-1.8594,-1.8597,-1.8599,-1.8739,-1.874,0,0,0,0,0,0,-1.8212,-1.8231,-1.8355,-1.8361,-1.8288,-1.8364,-1.8377,-1.8404,-1.8473,-1.8483,-1.8439,-1.844,-1.8538,-1.8548,-1.8558,-1.8612,-1.8595,-1.86,-1.8603,-1.8738,-1.8739,-1.874,0,0,0,0,0,0,-1.8208,-1.8223,-1.835,-1.8297,-1.8314,-1.8367,-1.8398,-1.8406,-1.8429,-1.8484,-1.8494,-1.8452,-1.8538,-1.8551,-1.8602,-1.8616,-1.8602,-1.8606,-1.8738,-1.8739,-1.874,-1.8719,0,0,0,0,0,0,-1.8203,-1.8221,-1.8237,-1.8297,-1.8317,-1.8392,-1.8399,-1.8409,-1.8437,-1.8439,-1.8499,-1.8508,-1.8539,-1.8595,-1.8607,-1.8623,-1.861,-1.8736,-1.8738,-1.874,-1.8719,-1.872,-1.872,0,0,0,0,0,-1.8197,-1.8227,-1.8237,-1.8252,-1.8338,-1.8393,-1.8404,-1.8439,-1.8438,-1.8455,-1.8491,-1.8506,-1.8613,-1.86,-1.8614,-1.8631,-1.8736,-1.8738,-1.8739,-1.8719,-1.872,-1.872,0,0,0,0,0,0,-1.8166,-1.8235,-1.8248,-1.8298,-1.8339,-1.8399,-1.8421,-1.8438,-1.8481,-1.8481,-1.8523,-1.8536,-1.8584,-1.8613,-1.8597,-1.8676,-1.8675,-1.868,-1.8655,-1.8656,-1.8657,-1.8649,-1.8614,0,0,0,0,0,-1.8165,-1.8204,-1.8262,-1.8301,-1.8321,-1.8367,-1.8393,-1.8416,-1.8461,-1.8478,-1.8518,-1.8561,-1.8604,-1.8632,-1.8675,-1.8724,-1.8738,-1.8743,-1.8743,-1.8744,-1.8747,-1.8777,-1.878,-1.8746,-1.8746,-1.8746,0,0,-1.8163,-1.8206,-1.8228,-1.8295,-1.833,-1.837,-1.8382,-1.8423,-1.8454,-1.8485,-1.8536,-1.8566,-1.8617,-1.8668,-1.8692,-1.8693,-1.876,-1.8746,-1.8746,-1.8749,-1.8779,-1.8782,-1.8785,-1.8748,-1.8747,-1.8747,0,0,-1.8181,-1.8216,-1.8253,-1.8288,-1.8341,-1.8372,-1.8381,-1.8439,-1.846,-1.8512,-1.8537,-1.8574,-1.8647,-1.8683,-1.871,-1.8743,-1.8759,-1.8756,-1.8759,-1.8787,-1.879,-1.8792,-1.8805,-1.8808,-1.8759,-1.8759,-1.8759,0,-1.8171,-1.8232,-1.8269,-1.831,-1.8339,-1.837,-1.8408,-1.844,-1.8504,-1.8524,-1.8525,-1.8619,-1.8655,-1.8715,-1.8723,-1.8744,-1.8756,-1.8749,-1.8786,-1.8789,-1.8792,-1.8804,-1.8809,-1.8758,-1.8758,-1.8759,-1.8759,0,-1.8219,-1.8261,-1.8284,-1.8346,-1.8378,-1.8417,-1.846,-1.8489,-1.851,-1.8541,-1.8594,-1.8639,-1.8692,-1.8708,-1.8728,-1.8771,-1.8771,-1.8778,-1.8779,-1.8794,-1.8806,-1.8811,-1.8757,-1.8758,-1.8758,-1.8758,0,0,-1.8219,-1.8301,-1.8309,-1.8338,-1.84,-1.8433,-1.8474,-1.8526,-1.855,-1.8594,-1.863,-1.8692,-1.87,-1.8732,-1.8757,-1.8781,-1.8805,-1.8787,-1.8788,-1.8789,-1.8857,-1.885,-1.8855,-1.8817,-1.8818,-1.8819,-1.8852,0,-1.8244,-1.8318,-1.8353,-1.8412,-1.8452,-1.8482,-1.8518,-1.856,-1.8591,-1.863,-1.8664,-1.8708,-1.8715,-1.8734,-1.876,-1.8797,-1.882,-1.8795,-1.8851,-1.8853,-1.8837,-1.8861,-1.8854,-1.8884,-1.8857,-1.8858,-1.8859,0,-1.8283,-1.8327,-1.839,-1.8448,-1.8466,-1.8498,-1.8549,-1.8586,-1.8635,-1.8655,-1.8691,-1.8716,-1.8761,-1.8759,-1.8822,-1.8805,-1.883,-1.8852,-1.8854,-1.886,-1.8856,-1.8868,-1.8894,-1.8898,-1.8867,-1.8866,-1.8865,0,-1.8277,-1.8352,-1.84,-1.8424,-1.8493,-1.8514,-1.8544,-1.8592,-1.8622,-1.8667,-1.8687,-1.8737,-1.8764,-1.8802,-1.884,-1.8835,-1.89,-1.8901,-1.8919,-1.8918,-1.8931,-1.8929,-1.8961,-1.8947,-1.8947,-1.8947,-1.8947,0,-1.8302,-1.8339,-1.8398,-1.8428,-1.8471,-1.8511,-1.8553,-1.8585,-1.8628,-1.8665,-1.8695,-1.8729,-1.8776,-1.8817,-1.8846,-1.8895,-1.8907,-1.8925,-1.8933,-1.8923,-1.892,-1.8939,-1.8938,-1.8948,-1.8948,-1.8948,-1.8947,0,-1.8302,-1.8343,-1.8397,-1.8458,-1.8475,-1.8504,-1.8557,-1.8587,-1.8619,-1.8666,-1.8679,-1.873,-1.8779,-1.8821,-1.8885,-1.8905,-1.8955,-1.8964,-1.8939,-1.8943,-1.8959,-1.8957,-1.9004,-1.9012,-1.8992,-1.8992,-1.8992,0,-1.8315,-1.8345,-1.841,-1.8436,-1.8466,-1.8508,-1.8539,-1.858,-1.8611,-1.867,-1.8693,-1.8744,-1.8787,-1.8864,-1.8908,-1.8957,-1.8968,-1.8981,-1.8975,-1.8965,-1.8969,-1.8966,-1.897,-1.8981,-1.8981,-1.8981,-1.8981,0,-1.8335,-1.8354,-1.8396,-1.8447,-1.8483,-1.8524,-1.8567,-1.8587,-1.8637,-1.867,-1.872,-1.8754,-1.882,-1.8871,-1.8926,-1.8957,-1.8978,-1.8983,-1.899,-1.8979,-1.8964,-1.8973,-1.894,-1.8981,-1.8981,-1.8981,-1.8981,-1.8981,-1.8342,-1.837,-1.842,-1.8467,-1.8504,-1.8543,-1.8575,-1.8612,-1.8655,-1.8712,-1.8734,-1.8786,-1.8836,-1.8911,-1.8943,-1.8985,-1.8988,-1.8997,-1.9,-1.9002,-1.9,-1.8957,-1.8995,-1.8995,-1.8995,-1.8995,-1.8995,0,-1.8363,-1.8397,-1.844,-1.8499,-1.8536,-1.8553,-1.8601,-1.8631,-1.8676,-1.8721,-1.8763,-1.8822,-1.8872,-1.8919,-1.8972,-1.8996,-1.9007,-1.9008,-1.9007,-1.9014,-1.8995,-1.8983,-1.8999,-1.8999,-1.8999,-1.8999,-1.8999,-1.8999,-1.8379,-1.8427,-1.8453,-1.852,-1.8554,-1.8605,-1.8632,-1.8668,-1.8704,-1.8768,-1.881,-1.8841,-1.8887,-1.8944,-1.899,-1.9003,-1.9021,-1.902,-1.9036,-1.9016,-1.9015,-1.9015,-1.9004,-1.9024,-1.9024,-1.9052,-1.9052,-1.9053]},{"header":{"parameterUnit":"m.s-1","parameterCategory":1,"la1":30.2991,"la2":30.254,"lo1":-89.0895,"lo2":-89.0444,"dy":0.0017,"dx":0.0017,"nx":28,"ny":28,"refTime":"2025-04-30T03:00:00:Z","depth":0,"parameterNumber":3,"parameterNumberName":"V-component_of_WINDS"},"data":[0,0,0,0,0,0,0,0,0,0,0,0,0,0,0,0,0,0,0,0,0,0,0,0,0,0,0,0,0,0,0,0,0,0,0,0,0,0,0,0,0,0,0,0,0,0,0,0,0,0,0,0,0,0,0,0,0,0,5.6186,5.6186,0,5.6245,5.6245,5.6246,5.6199,5.6197,5.6195,5.6193,5.6248,5.6251,5.6254,0,0,0,0,0,0,0,0,0,0,0,0,0,5.6025,5.6028,5.6186,5.6186,5.6187,5.6245,5.6245,5.6246,5.6199,5.6197,5.6194,5.6192,5.6247,5.6251,5.6255,0,0,0,0,0,0,0,0,0,0,0,0,0,5.609,5.6029,5.6185,5.6171,5.617,5.6244,5.6245,5.6246,5.62,5.6197,5.6194,5.6191,5.6245,5.625,5.6255,5.6346,0,0,5.627,5.6273,0,0,0,0,0,0,0,0,5.6087,5.6096,5.6172,5.6172,5.6171,5.6211,5.6209,5.628,5.62,5.6188,5.6193,5.6189,5.6238,5.6243,5.6261,5.6348,5.6351,5.6271,5.6274,5.6276,5.6277,0,0,0,0,0,0,0,5.6082,5.6094,5.6209,5.6173,5.6173,5.6159,5.6165,5.6222,5.6229,5.6189,5.6186,5.6194,5.6237,5.6256,5.6262,5.6352,5.6271,5.6275,5.6278,5.628,5.6514,5.6517,0,0,0,0,0,0,5.608,5.609,5.6207,5.6211,5.6121,5.6164,5.6171,5.6201,5.6228,5.6229,5.6196,5.6191,5.6249,5.6256,5.6263,5.637,5.6276,5.6281,5.6284,5.6511,5.6515,5.6518,0,0,0,0,0,0,5.6077,5.6091,5.6204,5.615,5.6163,5.617,5.6205,5.6204,5.6223,5.6234,5.6234,5.6215,5.6247,5.6256,5.6325,5.6371,5.6283,5.6287,5.6507,5.6512,5.6516,5.6584,0,0,0,0,0,0,5.6073,5.609,5.6126,5.6151,5.6166,5.6268,5.6208,5.6207,5.6233,5.6227,5.6251,5.6252,5.6245,5.6318,5.633,5.6376,5.6291,5.6503,5.6509,5.6515,5.6577,5.659,5.6601,0,0,0,0,0,5.6067,5.6142,5.6129,5.6143,5.6212,5.6271,5.6279,5.6271,5.6237,5.6272,5.6278,5.6252,5.6364,5.6326,5.6339,5.6387,5.65,5.6507,5.6514,5.6572,5.6588,5.6601,0,0,0,0,0,0,5.6121,5.6145,5.613,5.6216,5.6242,5.6263,5.6307,5.6288,5.6323,5.6316,5.6302,5.6308,5.6381,5.6391,5.6348,5.6475,5.6426,5.6436,5.6466,5.6481,5.6492,5.6488,5.6295,0,0,0,0,0,5.6144,5.6192,5.6209,5.6283,5.6297,5.63,5.6325,5.6317,5.6342,5.6352,5.6364,5.6388,5.6428,5.6455,5.6493,5.6579,5.6582,5.6618,5.663,5.664,5.6648,5.6692,5.6708,5.6542,5.6542,5.6542,0,0,5.6189,5.6208,5.6239,5.6294,5.6313,5.6361,5.6309,5.6362,5.6396,5.6359,5.6426,5.6435,5.646,5.6538,5.6573,5.6549,5.6695,5.6649,5.6657,5.666,5.6701,5.6717,5.6731,5.6547,5.6546,5.6545,0,0,5.6297,5.6318,5.638,5.6401,5.6431,5.6432,5.6447,5.6471,5.6476,5.6542,5.6515,5.6555,5.6626,5.6644,5.6663,5.6777,5.6753,5.679,5.6851,5.6895,5.6908,5.6919,5.6958,5.6972,5.6799,5.6799,5.6799,0,5.635,5.6423,5.6415,5.647,5.6493,5.6464,5.6526,5.6545,5.6585,5.6601,5.6574,5.6662,5.6677,5.6758,5.6785,5.6802,5.6817,5.6786,5.6907,5.6918,5.6929,5.6965,5.698,5.6803,5.6802,5.6802,5.6802,0,5.6485,5.6535,5.6582,5.6623,5.6653,5.6711,5.6709,5.6739,5.6728,5.6732,5.6798,5.6816,5.6856,5.6875,5.6864,5.6953,5.6937,5.6909,5.6859,5.6949,5.6983,5.6997,5.6809,5.6807,5.6806,5.6805,0,0,5.6629,5.6664,5.6681,5.6699,5.6729,5.6767,5.6823,5.6864,5.6889,5.6917,5.6962,5.7022,5.6996,5.7017,5.7008,5.7046,5.7133,5.7012,5.7013,5.7033,5.723,5.725,5.7267,5.7118,5.712,5.7122,5.7227,0,5.6736,5.6836,5.6829,5.6922,5.6967,5.6939,5.6987,5.7009,5.7014,5.7051,5.7055,5.7097,5.706,5.7073,5.7109,5.7114,5.7172,5.7107,5.7157,5.7159,5.715,5.7285,5.7307,5.7405,5.7241,5.7243,5.7245,0,5.6876,5.691,5.7007,5.7029,5.7048,5.7092,5.7128,5.7165,5.7189,5.7189,5.7213,5.7197,5.725,5.7201,5.7274,5.723,5.7249,5.7255,5.7258,5.7261,5.7206,5.729,5.7436,5.745,5.7266,5.7264,5.7263,0,5.6969,5.7039,5.7106,5.7122,5.715,5.7181,5.7193,5.7215,5.7239,5.727,5.7285,5.7322,5.7341,5.7368,5.7362,5.7327,5.7435,5.7386,5.7435,5.7435,5.7458,5.7456,5.7608,5.7474,5.7474,5.7473,5.7473,0,5.7089,5.7149,5.7148,5.7189,5.7254,5.7246,5.731,5.7319,5.7338,5.7378,5.7356,5.7393,5.7383,5.742,5.7415,5.7475,5.7484,5.7484,5.7482,5.7486,5.7485,5.7497,5.749,5.7477,5.7476,5.7475,5.7475,0,5.7204,5.7206,5.7276,5.7297,5.7304,5.7351,5.7367,5.7405,5.7407,5.7458,5.747,5.7473,5.7515,5.7512,5.7559,5.7555,5.7629,5.7619,5.7621,5.7618,5.7667,5.7662,5.783,5.7851,5.7705,5.7706,5.7708,0,5.728,5.7326,5.7351,5.7378,5.7393,5.7435,5.746,5.7452,5.7479,5.7509,5.7542,5.7583,5.7614,5.7682,5.7688,5.7723,5.7713,5.777,5.7718,5.772,5.7712,5.7709,5.7712,5.7779,5.7781,5.7782,5.7783,0,5.7414,5.7413,5.7451,5.7489,5.7519,5.7548,5.7575,5.7597,5.7592,5.7622,5.7666,5.769,5.7739,5.7778,5.7811,5.7822,5.7801,5.78,5.7813,5.7816,5.7815,5.7814,5.7647,5.7796,5.7794,5.7793,5.7793,5.7792,5.7511,5.7549,5.7573,5.7616,5.7635,5.766,5.7696,5.7703,5.774,5.7779,5.7772,5.782,5.7841,5.7884,5.7898,5.7934,5.7913,5.7932,5.7937,5.7941,5.7946,5.781,5.794,5.7939,5.7939,5.7939,5.7939,0,5.7643,5.7657,5.7696,5.7734,5.7766,5.7746,5.7773,5.7801,5.7845,5.7867,5.7899,5.7947,5.7985,5.7994,5.8029,5.8056,5.8048,5.8066,5.8063,5.8065,5.7964,5.7948,5.8072,5.8072,5.8072,5.8072,5.8072,5.8072,5.7715,5.7779,5.778,5.7852,5.7864,5.7913,5.793,5.7952,5.7969,5.8025,5.8057,5.8063,5.8078,5.8115,5.8148,5.8149,5.8162,5.8184,5.8182,5.8086,5.8073,5.806,5.8045,5.8188,5.8188,5.828,5.8281,5.8282]}]]